This demonstration page uses our WeatherBlox Daily Observations layout. Learn more.

Left ArrowRight Arrow

Hourly Observations for April 24, 2017

Temp ( °F °C ) Dew Point ( °F °C ) Humidity (%) Winds ( mph kmh ) Pressure ( in mb ) Visibility ( mi km ) Precip ( " mm )
12:53 am 00:53 Cloudy 39 3.9 38 3.3 96 96 ENE 10 17 29.72 1007 10 16 0.00 0.00
1:53 am 01:53 Clear 36 2.2 36 2.2 100 100 ENE 7 11 29.70 1006 7 11 0.00 0.00
2:53 am 02:53 Clear with Mist and Fog 36 2.2 35 1.7 97 97 E 3 6 29.69 1006 6 10 0.00 0.00
3:35 am 03:35 Mostly Clear with Mist and Fog 34 1.1 34 1.1 100 100 ENE 6 9 29.74 1007 5 8 0.00 0.00
3:53 am 03:53 Mostly Clear with Mist and Fog 34 1.1 34 1.1 100 100 E 3 6 29.70 1006 4 6 0.00 0.00
4:06 am 04:06 Mostly Cloudy with Mist and Fog 34 1 34 1 100 100 E 7 11 29.74 1007 2 2 0.00 0.00
4:08 am 04:08 Mostly Cloudy with Mist and Fog 34 1 34 1 100 100 E 7 11 29.74 1007 1 1 0.00 0.00
4:19 am 04:19 Mostly Cloudy with Fog 34 1.1 34 1.1 100 100 E 6 9 29.74 1007 0 0 0.00 0.00
4:53 am 04:53 Mostly Cloudy with Fog 35 1.7 35 1.7 100 100 E 5 7 29.70 1006 0 0 0.00 0.00
5:53 am 05:53 Mostly Cloudy with Fog 36 2.2 36 2.2 100 100 E 6 9 29.70 1006 0 0 0.00 0.00
6:16 am 06:16 Mostly Cloudy with Fog 36 2 36 2 100 100 E 6 9 29.74 1007 1 1 0.00 0.00
6:34 am 06:34 Mostly Cloudy with Fog 36 2 36 2 100 100 ESE 5 7 29.74 1007 0 0 0.00 0.00
6:53 am 06:53 Mostly Cloudy with Fog 36 2.2 36 2.2 100 100 ESE 6 9 29.70 1006 0 0 0.00 0.00
7:04 am 07:04 Mostly Cloudy with Mist and Fog 36 2 36 2 100 100 ESE 6 9 29.74 1007 1 2 0.00 0.00
7:07 am 07:07 Cloudy with Mist and Fog 36 2.2 36 2.2 100 100 ESE 7 11 29.74 1007 4 6 0.00 0.00
7:53 am 07:53 Cloudy with Mist and Fog 37 2.8 37 2.8 100 100 SE 3 6 29.70 1006 5 8 0.00 0.00
8:53 am 08:53 Cloudy with Mist and Fog 37 2.8 37 2.8 100 100 S 3 6 29.70 1006 3 5 0.00 0.00
9:53 am 09:53 Cloudy 41 5 39 3.9 93 93 Calm 29.69 1006 10 16 0.00 0.00
10:53 am 10:53 Cloudy 42 5.6 40 4.4 92 92 Calm 29.69 1005 9 14 0.00 0.00
11:51 am 11:51 Cloudy 46 8 41 5 82 82 VRB 6 9 29.68 1005 10 16 0.00 0.00
11:53 am 11:53 Cloudy 47 8.3 41 5 80 80 NE 6 9 29.67 1005 10 16 0.00 0.00
12:35 pm 12:35 Cloudy 49 9.4 41 5 74 74 E 5 7 29.65 1004 10 16 0.00 0.00
12:53 pm 12:53 Cloudy 49 9.4 40 4.4 71 71 E 5 7 29.67 1005 10 16 0.00 0.00
1:53 pm 13:53 Mostly Cloudy 53 11.7 41 5 64 64 N 8 13 29.65 1004 10 16 0.00 0.00
2:17 pm 14:17 Partly Cloudy 54 12.2 42 5.6 64 64 NNW 9 15 29.59 1002 10 16 0.00 0.00
2:25 pm 14:25 Mostly Cloudy 54 12.2 41 5 62 62 NE 6 9 29.59 1002 10 16 0.00 0.00
2:34 pm 14:34 Partly Cloudy 54 12 39 4 58 58 NE 6 9 29.59 1002 10 16 0.00 0.00
2:53 pm 14:53 Partly Cloudy 53 11.7 40 4.4 61 61 NNW 6 9 29.65 1004 10 16 0.00 0.00
3:53 pm 15:53 Partly Cloudy 55 12.8 40 4.4 57 57 E 9 15 29.63 1004 10 16 0.00 0.00
4:53 pm 16:53 Mostly Cloudy 55 12.8 36 2.2 49 49 N 7 11 29.63 1003 10 16 0.00 0.00
5:53 pm 17:53 Mostly Sunny 56 13.3 37 2.8 49 49 ENE 10 17 29.62 1003 10 16 0.00 0.00
6:53 pm 18:53 Partly Cloudy 52 11.1 36 2.2 55 55 NE 9 15 29.64 1004 10 16 0.00 0.00
7:53 pm 19:53 Cloudy 50 10 38 3.3 63 63 E 17 28 29.66 1004 10 16 0.00 0.00
8:53 pm 20:53 Cloudy 46 7.8 39 3.9 77 77 E 17 28 29.70 1006 10 16 0.00 0.00
9:53 pm 21:53 Cloudy 42 5.6 35 1.7 76 76 E 24 39 29.72 1007 10 16 0.00 0.00
10:53 pm 22:53 Clear 39 3.9 33 0.6 79 79 E 22 35 29.75 1008 10 16 0.00 0.00
11:53 pm 23:53 Cloudy 35 1.7 30 -1.1 82 82 E 24 39 29.77 1008 10 16 0.00 0.00

Powered by AerisWeather